EW8682 Weather Reports


Display with metric or nautical units.
time (UTC)temp
F
wind
direction
speed
MPH
gust
MPH
rain 1hr
in
rain 24hr
in
rain mn
in
humidity
%
barometer
mb
20260904133012 61 167 0.0 3.0 0.00 0.00 0.00 87 1004.6
20260904131508 61 167 0.0 0.0 0.00 0.00 0.00 87 1004.5
20260904130008 61 167 0.0 0.0 0.00 0.00 0.00 87 1004.5
20260904124508 61 167 0.0 0.0 0.00 0.00 0.00 87 1004.4
20260904123007 61 167 0.0 0.0 0.00 0.00 0.00 88 1004.3
20260904121506 60 167 0.0 1.0 0.00 0.00 0.00 88 1004.4
20260904120007 60 167 0.0 0.0 0.00 0.00 0.00 88 1004.4
20260904114508 59 167 0.0 0.0 0.00 0.00 0.00 88 1004.4
20260904113005 59 167 0.0 0.0 0.00 0.00 0.00 88 1004.3
20260904111503 59 167 0.0 0.0 0.00 0.00 0.00 88 1004.4
20260904110003 59 167 0.0 1.0 0.00 0.00 0.00 88 1004.4
20260904104502 58 167 0.0 2.0 0.00 0.00 0.00 88 1004.4
20260904103001 57 167 0.0 1.0 0.00 0.00 0.00 88 1004.4
20260904101601 57 167 1.0 3.0 0.00 0.00 0.00 88 1004.3
20260904100106 57 167 0.0 2.0 0.00 0.00 0.00 87 1004.2
20260904094604 58 167 1.0 3.0 0.00 0.00 0.00 88 1004.2
20260904093056 58 167 1.0 3.0 0.00 0.00 0.00 87 1004.1
20260904091554 58 167 1.0 3.0 0.00 0.00 0.00 87 1004.1
20260904090104 58 167 0.0 2.0 0.00 0.00 0.00 86 1004.1
20260904084557 58 167 2.0 3.0 0.00 0.00 0.00 86 1004.2
20260904083125 59 167 3.0 4.0 0.00 0.00 0.00 85 1004.3
20260904081548 59 169 1.0 2.0 0.00 0.00 0.00 84 1004.4
20260904080045 60 169 1.0 3.0 0.00 0.00 0.00 85 1004.6
20260904074543 60 175 1.0 2.0 0.00 0.00 0.00 83 1004.5
20260904073042 60 175 1.0 2.0 0.00 0.00 0.00 83 1004.4
20260904071555 60 175 0.0 2.0 0.00 0.00 0.00 82 1004.4
20260904070107 60 175 2.0 3.0 0.00 0.00 0.00 83 1004.3
20260904064538 60 176 1.0 2.0 0.00 0.00 0.00 82 1004.3
20260904063042 61 176 1.0 3.0 0.00 0.00 0.00 82 1004.3
20260904061537 61 178 0.0 2.0 0.00 0.00 0.00 82 1004.1
20260904060037 61 178 1.0 3.0 0.00 0.00 0.00 82 1004.1
20260904054545 62 178 0.0 2.0 0.00 0.00 0.00 80 1004.2
20260904053048 62 178 1.0 3.0 0.00 0.00 0.00 80 1004.2
20260904051539 62 178 0.0 0.0 0.00 0.00 0.00 78 1004.1
20260904050037 63 178 0.0 0.0 0.00 0.00 0.00 78 1004.2
20260904044533 63 178 0.0 0.0 0.00 0.00 0.00 77 1004.1
20260904043036 64 179 0.0 0.0 0.00 0.00 0.00 76 1004.1
20260904041530 65 179 0.0 0.0 0.00 0.00 0.00 73 1004.1
20260904040030 65 179 0.0 0.0 0.00 0.00 0.00 72 1003.8
20260904034529 67 179 0.0 0.0 0.00 0.00 0.00 69 1003.7
20260904033030 68 179 0.0 0.0 0.00 0.00 0.00 68 1003.6
20260904031536 69 179 0.0 2.0 0.00 0.00 0.00 67 1003.6
20260904030028 70 179 0.0 2.0 0.00 0.00 0.00 65 1003.4
20260904024527 71 178 0.0 2.0 0.00 0.00 0.00 63 1003.3
20260904023027 72 178 0.0 2.0 0.00 0.00 0.00 63 1003.2
20260904021530 73 178 1.0 5.0 0.00 0.00 0.00 61 1003.2
20260904020026 74 178 0.0 6.0 0.00 0.00 0.00 61 1003.3
20260904014526 74 184 1.0 5.0 0.00 0.00 0.00 60 1003.2
20260904013024 76 176 3.0 5.0 0.00 0.00 0.00 57 1003.2
20260904011524 77 194 2.0 5.0 0.00 0.00 0.00 53 1003.2
20260904010023 77 204 3.0 6.0 0.00 0.00 0.00 51 1003.3
20260904004520 78 191 3.0 7.0 0.00 0.00 0.00 51 1003.2
20260904003019 78 172 3.0 9.0 0.00 0.00 0.00 49 1003.3
20260904001518 79 181 5.0 9.0 0.00 0.00 0.00 50 1003.3
20260904000018 79 193 3.0 8.0 0.00 0.00 0.00 51 1003.3
20260903234515 79 175 4.0 10.0 0.00 0.00 0.00 51 1003.4
20260903233010 80 188 1.0 9.0 0.00 0.00 0.00 50 1003.5
20260903231509 79 173 3.0 8.0 0.00 0.00 0.00 50 1003.5
20260903230007 79 187 3.0 9.0 0.00 0.00 0.00 52 1003.7
20260903224515 80 180 3.0 9.0 0.00 0.00 0.00 51 1003.7
20260903223004 80 184 3.0 11.0 0.00 0.00 0.00 50 1003.9
20260903221503 80 204 6.0 10.0 0.00 0.00 0.00 49 1004.1
20260903220003 80 193 3.0 8.0 0.00 0.00 0.00 50 1004.1
20260903214503 80 173 1.0 10.0 0.00 0.00 0.00 50 1004.3
20260903213100 80 194 2.0 9.0 0.00 0.00 0.00 50 1004.3
20260903211607 80 181 4.0 9.0 0.00 0.00 0.00 48 1004.3
20260903210058 80 184 3.0 9.0 0.00 0.00 0.00 45 1004.4
20260903204601 81 163 4.0 9.0 0.00 0.00 0.00 44 1004.5
20260903203056 80 266 4.0 8.0 0.00 0.00 0.00 45 1004.5
20260903201600 80 175 0.0 8.0 0.00 0.00 0.00 44 1004.6
20260903200058 79 181 3.0 7.0 0.00 0.00 0.00 45 1004.8
20260903194547 79 223 4.0 8.0 0.00 0.00 0.00 44 1005.0
20260903193044 78 196 3.0 8.0 0.00 0.00 0.00 46 1005.2
20260903191541 77 204 4.0 6.0 0.00 0.00 0.00 48 1005.5
20260903190037 76 225 3.0 8.0 0.00 0.00 0.00 51 1005.7
20260903184534 75 173 4.0 8.0 0.00 0.00 0.00 54 1005.9
20260903183031 74 178 1.0 7.0 0.00 0.00 0.00 57 1006.1
20260903181529 74 199 2.0 7.0 0.00 0.00 0.00 59 1006.2
20260903180033 73 240 3.0 6.0 0.00 0.00 0.00 61 1006.2
20260903174522 72 207 2.0 8.0 0.00 0.00 0.00 62 1006.3
20260903173017 70 182 2.0 6.0 0.00 0.00 0.00 65 1006.3
20260903171516 70 169 3.0 8.0 0.00 0.00 0.00 66 1006.4
20260903170014 70 219 3.0 6.0 0.00 0.00 0.00 64 1006.3
20260903164511 68 192 1.0 6.0 0.00 0.00 0.00 60 1006.3
20260903163006 67 200 1.0 4.0 0.00 0.00 0.00 62 1006.2
20260903161502 65 174 0.0 3.0 0.00 0.00 0.00 70 1006.3
20260903160059 64 163 0.0 2.0 0.00 0.00 0.00 70 1006.3
20260903154601 64 157 0.0 3.0 0.00 0.00 0.00 73 1006.4
20260903153112 63 127 0.0 3.0 0.00 0.00 0.00 74 1006.3
20260903151604 62 42 1.0 3.0 0.00 0.00 0.00 68 1006.3
20260903150104 61 43 2.0 4.0 0.00 0.00 0.00 58 1006.3
20260903144552 59 43 2.0 4.0 0.00 0.00 0.00 58 1006.3
20260903143059 58 45 1.0 3.0 0.00 0.00 0.00 61 1006.1
20260903141549 57 43 1.0 3.0 0.00 0.00 0.00 64 1006.1
20260903140047 56 44 1.0 3.0 0.00 0.00 0.00 64 1006.0
20260903134549 56 42 0.0 2.0 0.00 0.00 0.00 67 1005.9